User: anonymous   Login
Location: Unspecified
(0.0000°N, 0.0000°E)
Time: 17:26:08
(UTC+00:00)
Language:

SPOT 7 - Orbit

View from above orbital plane
View from above orbital plane
View from above satellite
View from above satellite

Ground track
Ground track

The orbit is defined by the following mean orbital elements,

1 40053U          26071.33515241 +.00000000 +00000-0 +11808-3 0 00006
2 40053  98.0737 136.2827 0001444 100.1593 259.9771 14.60864849    09
Epoch (UTC): 12 March 2026 08:02:37
Eccentricity: 0.0001444
inclination: 98.0737°
perigee height: 689 km
apogee height: 691 km
right ascension of ascending node: 136.2827°
argument of perigee: 100.1593°
revolutions per day: 14.60864849
mean anomaly at epoch: 259.9771°

The dashed part of the orbit path shows where the satellite is in the earth's shadow,  

DLR